Location: Bastogne Gables
(35.1554°N, 78.9900°W)
Time: 02:57:21
(UTC+00:00)

Cosmos 1340 - Pass Details

Date: 29 October 2020
Orbit: 501 x 504 km, 81.2° (Epoch: 26 November)

Event Time Altitude Azimuth Distance (km) Brightness Sun altitude
Rises 23:43:03 0° 343° (NNW) 2,609 6.4 -16.7°
Reaches altitude 10° 23:45:15 10° 336° (NNW) 1,721 5.6 -17.1°
Maximum altitude 23:48:49 41° 266° (W) 741 4.0 -17.9°
Drops below altitude 10° 23:52:21 10° 195° (SSW) 1,709 5.6 -18.6°
Sets 23:54:32 0° 188° (S) 2,588 6.4 -19.0°
